User: anonymous   Login
Location: Nashville
(36.1660°N, 86.7840°W)
Time: 04:56:25
(UTC-05:00)
Language:

CUBESAT XI-V - Orbit

View from above orbital plane
View from above orbital plane
View from above satellite
View from above satellite

Ground track
Ground track

The orbit data is extracted from the following two-line orbital elements,

1 28895U 05043F   22141.86940558  .00001789  00000-0  34758-3 0  9994
2 28895  98.1025 273.6640 0015833 221.2586 138.7421 14.64296795883528
Epoch (UTC): 21 May 2022 20:51:56
Eccentricity: 0.0015833
inclination: 98.1025°
perigee height: 668 km
apogee height: 690 km
right ascension of ascending node: 273.6640°
argument of perigee: 221.2586°
revolutions per day: 14.64296795
mean anomaly at epoch: 138.7421°
orbit number at epoch: 88352

The dashed part of the orbit path shows where the satellite is in the earth's shadow,  

DLR